Rothschild, WI

5:41 AM CDT on August 24, 2016 (GMT -0500)
Wausau Downtown

Weather History for KAUW - February, 2014

Change the Weather History Date:

Thursday, February 27, 2014

  Actual Average Record
Temperature  
Mean Temperature -8 °F 23 °F  
Max Temperature 1 °F 32 °F 55 °F (2016)
Min Temperature -17 °F 14 °F -17 °F (2014)
Degree Days  
Heating Degree Days 73 42  
Month to date heating degree days 1566 1243  
Since 1 July heating degree days 6876 6093  
Cooling Degree Days 0 0  
Month to date cooling degree days 0 0  
Year to date cooling degree days 0 0  
Moisture  
Dew Point -18 °F    
Average Humidity 57    
Maximum Humidity 72    
Minimum Humidity 41    
Precipitation  
Precipitation T in 0.05 in 0.56 in (1948)
Month to date precipitation 1.27 0.88  
Year to date precipitation 2.82 1.90  
Snow  
Snow T in 0.30 in 4.60 in (1948)
Month to date snowfall 16.2 9.2  
Since 1 July snowfall 68.2 44.9  
Snow Depth 23.00 in    
Sea Level Pressure  
Sea Level Pressure 30.09 in    
Wind  
Wind Speed 9 mph (WNW)    
Max Wind Speed 23 mph    
Max Gust Speed 31 mph    
Visibility 10 miles    
Events      
T = Trace of Precipitation, MM = Missing Value Source: NWS Daily Summary

Daily Weather History Graph

Daily Weather History Graph

Search for Another Location

Airport or City:

Trip Planner

Search our weather history database for the weather conditions in past years. The results will help you decide how hot, cold, wet, or windy it might be!

Date:

Astronomy

Feb. 27, 2014 Rise Set
Actual Time 6:39 AM CST 5:43 PM CST
Civil Twilight 6:10 AM CST 6:12 PM CST
Nautical Twilight 5:36 AM CST 6:46 PM CST
Astronomical Twilight 5:02 AM CST 7:20 PM CST
Moon 5:15 AM CST (2/27) 4:06 PM CST (2/27)
Length of Visible Light 12h 02m
Length of Day
11h 03m
Waning Crescent, 4% of the Moon is Illuminated
Feb 27
Waning Crescent
Mar 1
New
Mar 8
First Quarter
Mar 16
Full
Mar 23
Last Quarter

Hourly Weather History & Observations

Time (CST) Temp. Windchill Dew Point Humidity Pressure Visibility Wind Dir Wind Speed Gust Speed Precip Events Conditions
12:54 AM -0.9 °F -21.2 °F -13.0 °F 57% 29.75 in 9.0 mi NW 16.1 mph 26.5 mph 0.00 in   Clear
1:54 AM -2.9 °F -23.8 °F -14.1 °F 59% 29.80 in 10.0 mi NW 16.1 mph 24.2 mph N/A   Clear
2:54 AM -5.1 °F -23.5 °F -13.0 °F 69% 29.84 in 10.0 mi NW 11.5 mph 21.9 mph N/A   Clear
3:54 AM -7.1 °F -28.4 °F -14.1 °F 72% 29.88 in 10.0 mi NW 15.0 mph - N/A   Scattered Clouds
4:54 AM -8.0 °F -28.8 °F -17.0 °F 65% 29.94 in 10.0 mi NW 13.8 mph - N/A   Clear
5:54 AM -9.9 °F -29.6 °F -17.0 °F 71% 30.00 in 10.0 mi NW 11.5 mph - N/A   Clear
6:54 AM -11.0 °F -28.8 °F -18.0 °F 71% 30.04 in 10.0 mi NW 9.2 mph - N/A   Clear
7:54 AM -11.0 °F -30.9 °F -18.9 °F 68% 30.08 in 10.0 mi NW 11.5 mph - N/A   Clear
8:54 AM -9.0 °F -28.4 °F -18.9 °F 62% 30.10 in 10.0 mi NW 11.5 mph - N/A   Clear
9:54 AM -7.1 °F -25.9 °F -18.0 °F 59% 30.12 in 10.0 mi NW 11.5 mph - N/A   Clear
10:54 AM -5.1 °F -23.5 °F -18.9 °F 51% 30.14 in 10.0 mi NW 11.5 mph - N/A   Clear
11:54 AM -2.9 °F -18.8 °F -18.0 °F 49% 30.15 in 10.0 mi WNW 9.2 mph - N/A   Clear
12:54 PM -2.9 °F -22.4 °F -17.0 °F 51% 30.14 in 10.0 mi West 13.8 mph - N/A   Clear
1:54 PM -2.0 °F -19.6 °F -17.0 °F 49% 30.15 in 10.0 mi West 11.5 mph - N/A   Clear
2:54 PM -2.0 °F -21.2 °F -17.0 °F 49% 30.16 in 10.0 mi West 13.8 mph 19.6 mph N/A   Clear
3:54 PM -2.0 °F -18.7 °F -20.9 °F 40% 30.17 in 10.0 mi WNW 10.4 mph - N/A   Clear
4:54 PM -2.9 °F -17.7 °F -20.9 °F 42% 30.17 in 10.0 mi West 8.1 mph - N/A   Clear
5:54 PM -5.1 °F -17.6 °F -22.0 °F 44% 30.18 in 10.0 mi West 5.8 mph - N/A   Clear
6:54 PM -6.0 °F - -22.0 °F 46% 30.19 in 10.0 mi Calm Calm - N/A   Clear
7:54 PM -7.1 °F -19.9 °F -22.0 °F 48% 30.20 in 10.0 mi NW 5.8 mph - N/A   Clear
8:54 PM -9.0 °F - -22.0 °F 53% 30.20 in 10.0 mi Calm Calm - N/A   Clear
9:54 PM -11.0 °F - -20.9 °F 62% 30.21 in 10.0 mi Calm Calm - N/A   Clear
10:54 PM -13.0 °F - -20.0 °F 71% 30.21 in 10.0 mi Calm Calm - N/A   Clear
11:54 PM -16.1 °F - -22.0 °F 74% 30.22 in 10.0 mi Calm Calm - N/A   Clear